GW1356 Weather Reports


time (UTC)temp
C
wind
direction
speed
KPH
gust
KPH
rain 1hr
cm
rain 24hr
cm
rain mn
cm
humidity
%
barometer
mb
20260507224558 14 37 9.7 12.9 0.00 0.00 0.00 84 1023.9
20260507223051 14 56 6.4 9.7 0.00 0.00 0.00 82 1024.0
20260507221502 15 50 4.8 8.0 0.00 0.00 0.00 81 1024.0
20260507220008 15 37 4.8 9.7 0.00 0.00 0.00 81 1024.0
20260507214522 15 25 4.8 14.5 0.00 0.00 0.00 80 1024.1
20260507213034 16 38 4.8 9.7 0.00 0.00 0.00 77 1024.2
20260507211541 16 20 4.8 6.4 0.00 0.00 0.00 77 1024.2
20260507210112 16 9 3.2 9.7 0.00 0.00 0.00 77 1024.4
20260507204559 16 337 8.0 16.1 0.00 0.00 0.00 75 1024.2
20260507203010 16 342 11.3 17.7 0.00 0.00 0.00 77 1024.1
20260507201519 16 10 9.7 14.5 0.00 0.00 0.00 77 1024.3
20260507200034 16 347 8.0 12.9 0.00 0.00 0.00 77 1024.3
20260507194539 17 25 11.3 17.7 0.00 0.00 0.00 76 1024.3
20260507193059 17 39 14.5 22.5 0.00 0.00 0.00 77 1024.1
20260507191552 16 70 12.9 16.1 0.00 0.00 0.00 80 1024.2
20260507190049 16 37 8.0 16.1 0.00 0.00 0.00 80 1024.1
20260507184504 16 42 12.9 19.3 0.00 0.00 0.00 80 1023.9
20260507183013 16 32 11.3 20.9 0.00 0.00 0.00 81 1023.7
20260507181525 16 23 8.0 14.5 0.00 0.00 0.00 81 1023.7
20260507180033 17 37 3.2 8.0 0.00 0.00 0.00 78 1023.7
20260507174545 17 336 4.8 11.3 0.00 0.00 0.00 78 1023.6
20260507173128 17 338 3.2 6.4 0.00 0.00 0.00 77 1023.6
20260507171504 18 319 0.0 12.9 0.00 0.00 0.00 73 1023.8
20260507170013 18 23 1.6 9.7 0.00 0.00 0.00 70 1023.8
20260507164522 19 15 3.2 12.9 0.00 0.00 0.00 69 1023.8
20260507163032 20 29 6.4 12.9 0.00 0.00 0.00 70 1023.8
20260507161549 20 338 6.4 12.9 0.00 0.00 0.00 65 1023.7
20260507154558 22 25 6.4 16.1 0.00 0.00 0.00 60 1023.5
20260507153015 22 29 6.4 16.1 0.00 0.00 0.00 50 1023.7
20260507151520 23 250 0.0 3.2 0.00 0.00 0.00 52 1023.6
20260507150024 23 221 0.0 6.4 0.00 0.00 0.00 53 1023.6
20260507144545 23 214 1.6 6.4 0.00 0.00 0.00 52 1023.7
20260507143045 23 202 3.2 11.3 0.00 0.00 0.00 54 1023.6
20260507141610 24 180 4.8 11.3 0.00 0.00 0.00 52 1023.6
20260507140110 23 214 3.2 11.3 0.00 0.00 0.00 54 1023.6
20260507134515 24 190 0.0 6.4 0.00 0.00 0.00 52 1023.7
20260507133022 25 163 1.6 6.4 0.00 0.00 0.00 51 1023.6
20260507131534 23 248 0.0 8.0 0.00 0.00 0.00 54 1023.6
20260507130043 23 152 3.2 11.3 0.00 0.00 0.00 54 1023.9
20260507124555 22 218 4.8 11.3 0.00 0.00 0.00 56 1024.0
20260507123053 23 214 0.0 8.0 0.00 0.00 0.00 52 1024.1
20260507121554 22 241 1.6 6.4 0.00 0.00 0.00 54 1024.2
20260507120100 22 212 1.6 9.7 0.00 0.00 0.00 55 1024.2
20260507120011 22 241 1.6 9.7 0.00 0.00 0.00 56 1024.2
20260507114512 22 225 4.8 9.7 0.00 0.00 0.00 56 1024.5
20260507113028 22 224 4.8 12.9 0.00 0.00 0.00 56 1024.7
20260507111536 22 260 6.4 8.0 0.00 0.00 0.00 53 1024.9
20260507110043 22 160 1.6 8.0 0.00 0.00 0.00 55 1024.8
20260507104548 21 139 3.2 8.0 0.00 0.00 0.00 58 1024.7
20260507103100 21 161 1.6 8.0 0.00 0.00 0.00 61 1024.3
20260507101513 21 210 1.6 6.4 0.00 0.00 0.00 61 1024.2
20260507100022 21 176 3.2 6.4 0.00 0.00 0.00 59 1024.3
20260507094526 21 235 3.2 8.0 0.00 0.00 0.00 59 1024.4
20260507093044 22 183 0.0 6.4 0.00 0.00 0.00 57 1024.3
20260507091543 22 227 1.6 8.0 0.00 0.00 0.00 57 1024.2
20260507090110 21 212 1.6 8.0 0.00 0.00 0.00 60 1024.3
20260507084501 21 239 3.2 8.0 0.00 0.00 0.00 63 1024.1
20260507083014 20 202 1.6 9.7 0.00 0.00 0.00 65 1024.2
20260507081507 20 153 1.6 9.7 0.00 0.00 0.00 66 1024.0
20260507080022 21 154 1.6 4.8 0.00 0.00 0.00 63 1024.0
20260507074528 21 176 0.0 6.4 0.00 0.00 0.00 62 1023.8
20260507073040 20 154 0.0 6.4 0.00 0.00 0.00 67 1023.8
20260507071545 20 160 3.2 6.4 0.00 0.00 0.00 69 1023.8
20260507070130 19 219 1.6 9.7 0.00 0.00 0.00 69 1023.7